Regional Weather Roundup
Issued by NWS

Home | Current Version | Previous Version | Graphics & Text | Print | Product List | Glossary On
Versions: 1 2 3 4 5 6 7 8 9 10 11 12 13 14 15 16 17 18 19 20 21 22 23 24 25 26 27 28 29 30 31 32 33 34 35 36 37 38 39 40 41 42 43 44 45 46 47 48 49 50
682
ASUS43 KLMK 172202
RWRKY
KENTUCKY REGIONAL WEATHER ROUNDUP
NATIONAL WEATHER SERVICE LOUISVILLE KY
500 PM EST WED JAN 17 2018

NOTE "FAIR" INDICATES FEW OR NO CLOUDS BELOW 12,000 FEET
WITH NO SIGNIFICANT WEATHER AND/OR OBSTRUCTIONS TO VISIBILITY.

KYZ001>023-026-027-061>063-070>075-172300-
WESTERN AND SOUTH CENTRAL KENTUCKY

CITY           SKY/WX    TMP DP  RH WIND       PRES   REMARKS
PADUCAH        FAIR      18   6  59 W7        30.64F WCI   9
HENDERSON      NOT AVBL
OWENSBORO      FAIR      20   8  60 W5        30.64S WCI  13
HOPKINSVILLE   FAIR      15   6  66 CALM      30.62F
BOWLING GREEN  FAIR      19   9  65 VRB3      30.62S
GLASGOW        NOT AVBL
$$

KYZ024-025-028>034-038-045-046-053-172300-
NORTH CENTRAL KENTUCKY

CITY           SKY/WX    TMP DP  RH WIND       PRES   REMARKS
LOUISVILLE/SDF FAIR      20  10  65 SW5       30.58S WCI  13
LOUISVILLE/LOU MOCLDY    19  11  70 SW6       30.58F WCI  11
FORT KNOX      FAIR      16   8  69 SW6       30.55F WCI   8
$$

KYZ035>037-039>044-047>052-055>060-089>105-172300-
NORTHEAST KENTUCKY

CITY           SKY/WX    TMP DP  RH WIND       PRES   REMARKS
LEXINGTON      FAIR      15   7  70 W9        30.52F WCI   3
COVINGTON      FAIR      18  11  74 SW7       30.50S WCI   9
FRANKFORT      MOCLDY    16   6  65 W6        30.54S WCI   7
$$

KYZ054-064>069-076>088-106>120-172300-
SOUTHEAST KENTUCKY

CITY           SKY/WX    TMP DP  RH WIND       PRES   REMARKS
JACKSON        CLOUDY    12   5  73 CALM      30.46F
LONDON         CLOUDY    15   6  67 NW5       30.49S WCI   8
SOMERSET       NOT AVBL
MIDDLESBORO    CLOUDY    14   6  71 N7        30.51R WCI   4
MONTICELLO     FLURRIES  16   9  74 W8        30.56S WCI   5
$$





USA.gov is the U.S. government's official web portal to all federal, state and local government web resources and services.